E24YPM-1 Weather Reports


Display with metric or nautical units.
time (UTC)temp
F
wind
direction
speed
MPH
gust
MPH
rain 1hr
in
rain 24hr
in
rain mn
in
humidity
%
barometer
mb
20260505013623 93 0 0.0 0.0 0.00 0.00 0.00 54 1008.0
20260505012111 93 0 0.0 0.0 0.00 0.00 0.00 54 1008.0
20260505010555 92 0 0.0 0.0 0.00 0.00 0.00 55 1007.0
20260505005043 92 0 0.0 0.0 0.00 0.00 0.00 55 1007.0
20260505003531 92 0 0.0 0.0 0.00 0.00 0.00 55 1007.0
20260505002018 92 0 0.0 0.0 0.00 0.00 0.00 54 1007.0
20260505000505 92 0 0.0 0.0 0.00 0.00 0.00 53 1007.0
20260504234950 93 0 0.0 0.0 0.00 0.00 0.00 51 1007.0
20260504233436 93 0 0.0 0.0 0.00 0.00 0.00 50 1007.0
20260504231922 93 0 0.0 0.0 0.00 0.00 0.00 49 1007.0
20260504230405 93 0 0.0 0.0 0.00 0.00 0.00 50 1007.0
20260504224842 93 0 0.0 0.0 0.00 0.00 0.00 49 1007.0
20260504223328 93 0 0.0 0.0 0.00 0.00 0.00 49 1006.0
20260504221816 93 0 0.0 0.0 0.00 0.00 0.00 48 1006.0
20260504220317 93 0 0.0 0.0 0.00 0.00 0.00 48 1007.0
20260504214747 93 0 0.0 0.0 0.00 0.00 0.00 48 1006.0
20260504213235 92 0 0.0 0.0 0.00 0.00 0.00 47 1006.0
20260504211722 92 0 0.0 0.0 0.00 0.00 0.00 46 1006.0
20260504210209 92 0 0.0 0.0 0.00 0.00 0.00 44 1006.0
20260504204656 91 0 0.0 0.0 0.00 0.00 0.00 43 1005.0
20260504203144 91 0 0.0 0.0 0.00 0.00 0.00 40 1005.0
20260504201632 90 0 0.0 0.0 0.00 0.00 0.00 37 1005.0
20260504200120 88 0 0.0 0.0 0.00 0.00 0.00 32 1005.0
20260504194606 88 0 0.0 0.0 0.00 0.00 0.00 31 1005.0
20260504193253 88 0 0.0 0.0 0.00 0.00 0.00 30 1005.0
20260504191534 89 0 0.0 0.0 0.00 0.00 0.00 29 1005.0
20260504190019 89 0 0.0 0.0 0.00 0.00 0.00 29 1005.0
20260504184505 89 0 0.0 0.0 0.00 0.00 0.00 29 1005.0
20260504182952 89 0 0.0 0.0 0.00 0.00 0.00 30 1005.0
20260504181441 89 0 0.0 0.0 0.00 0.00 0.00 30 1005.0
20260504175937 89 0 0.0 0.0 0.00 0.00 0.00 30 1005.0
20260504174429 89 0 0.0 0.0 0.00 0.00 0.00 30 1005.0
20260504173036 89 0 0.0 0.0 0.00 0.00 0.00 30 1006.0
20260504171359 90 0 0.0 0.0 0.00 0.00 0.00 30 1006.0
20260504141124 91 0 0.0 0.0 0.00 0.00 0.00 33 1004.0
20260504080619 98 0 0.0 0.0 0.00 0.00 0.00 51 1001.0
20260504044550 98 0 0.0 0.0 0.00 0.00 0.00 48 1005.0
20260504043035 98 0 0.0 0.0 0.00 0.00 0.00 50 1005.0
20260504035941 98 0 0.0 0.0 0.00 0.00 0.00 50 1006.0
20260504034317 98 0 0.0 0.0 0.00 0.00 0.00 51 1006.0
20260504032802 98 0 0.0 0.0 0.00 0.00 0.00 51 1006.0
20260504031249 97 0 0.0 0.0 0.00 0.00 0.00 52 1006.0
20260504025733 97 0 0.0 0.0 0.00 0.00 0.00 52 1006.0
20260504024217 96 0 0.0 0.0 0.00 0.00 0.00 53 1006.0
20260504022701 95 0 0.0 0.0 0.00 0.00 0.00 53 1006.0
20260504021148 95 0 0.0 0.0 0.00 0.00 0.00 52 1006.0
20260504015632 95 0 0.0 0.0 0.00 0.00 0.00 53 1006.0